Regional Weather Roundup
Issued by NWS

Home | Current Version | Previous Version | Text Only | Print | Product List | Glossary Off
Versions: 1 2 3 4 5 6 7 8 9 10 11 12 13 14 15 16 17 18 19 20 21 22 23 24 25 26 27 28 29 30 31 32 33 34 35 36 37 38 39 40 41 42 43 44 45 46 47 48 49 50

000
ASUS43 KLMK 041810
RWRKY
KENTUCKY REGIONAL WEATHER ROUNDUP
NATIONAL WEATHER SERVICE LOUISVILLE KY
200 PM EDT WED MAY 04 2016

NOTE "FAIR" INDICATES FEW OR NO CLOUDS BELOW 12,000 FEET
WITH NO SIGNIFICANT WEATHER AND/OR OBSTRUCTIONS TO VISIBILITY.

KYZ001>023-026-027-061>063-070>075-041900-
WESTERN AND SOUTH CENTRAL KENTUCKY

CITY           SKY/WX    TMP DP  RH WIND       PRES   REMARKS
PADUCAH        PTSUNNY   67  51  56 NW12G20   29.75F
HENDERSON      MOSUNNY   63  48  59 NW12      29.73R
OWENSBORO      LGT RAIN  60  54  80 NW14      29.73S
HOPKINSVILLE   CLOUDY    60  54  81 W9        29.74F
BOWLING GREEN  PTSUNNY   59  53  80 SW7       29.73F
GLASGOW        LGT RAIN  54  54 100 S8        29.73F
$$

KYZ024-025-028>034-038-045-046-053-041900-
NORTH CENTRAL KENTUCKY

CITY           SKY/WX    TMP DP  RH WIND       PRES   REMARKS
LOUISVILLE/SDF LGT RAIN  55  51  86 W9        29.71S
LOUISVILLE/LOU CLOUDY    53  50  89 SW8       29.71F
FORT KNOX      CLOUDY    54  50  87 W6        29.69F
$$

KYZ035>037-039>044-047>052-055>060-089>105-041900-
NORTHEAST KENTUCKY

CITY           SKY/WX    TMP DP  RH WIND       PRES   REMARKS
LEXINGTON      RAIN      53  50  89 W7        29.72R FOG
COVINGTON      LGT RAIN  53  48  83 SW6       29.67F
FRANKFORT      LGT RAIN  54  49  83 SW6       29.68F
$$

KYZ054-064>069-076>088-106>120-041900-
SOUTHEAST KENTUCKY

CITY           SKY/WX    TMP DP  RH WIND       PRES   REMARKS
JACKSON        PTSUNNY   65  42  43 VRB6      29.69F
LONDON         PTSUNNY   65  36  34 W13       29.70F
SOMERSET       CLOUDY    61  41  48 W14       29.72F
MIDDLESBORO    CLOUDY    63  39  41 SW3       29.73F
MONTICELLO     LGT RAIN  63  46  54 W18       29.73F
$$





USA.gov is the U.S. government's official web portal to all federal, state and local government web resources and services.